EW8275 Weather Reports


Display with metric or nautical units.
time (UTC)temp
F
wind
direction
speed
MPH
gust
MPH
rain 1hr
in
rain 24hr
in
rain mn
in
humidity
%
barometer
mb
20260502182618 63 360 3.0 5.0 0.00 0.00 0.00 61 1013.3
20260502182041 63 17 2.0 5.0 0.00 0.00 0.00 61 1013.2
20260502181556 64 9 1.0 3.0 0.00 0.00 0.00 61 1013.3
20260502181051 64 303 2.0 4.0 0.00 0.00 0.00 60 1013.2
20260502180535 65 333 1.0 5.0 0.00 0.00 0.00 58 1013.2
20260502164038 70 20 1.0 8.0 0.00 0.00 0.00 54 1014.1
20260502163602 70 30 2.0 7.0 0.00 0.00 0.00 54 1014.2
20260502163050 71 320 2.0 7.0 0.00 0.00 0.00 53 1014.2
20260502162539 71 334 1.0 4.0 0.00 0.00 0.00 54 1014.3
20260502162028 71 355 2.0 6.0 0.00 0.00 0.00 53 1014.3
20260502161548 72 320 2.0 6.0 0.00 0.00 0.00 51 1014.4
20260502161039 72 319 1.0 3.0 0.00 0.00 0.00 53 1014.4
20260502160541 72 9 1.0 3.0 0.00 0.00 0.00 54 1014.5
20260502151533 72 244 2.0 5.0 0.00 0.00 0.00 56 1014.8
20260502151116 72 211 2.0 5.0 0.00 0.00 0.00 57 1014.9
20260502150553 72 225 2.0 4.0 0.00 0.00 0.00 57 1014.9
20260502130602 72 148 4.0 6.0 0.00 0.00 0.00 59 1016.3
20260502123549 71 242 5.0 9.0 0.00 0.00 0.00 63 1016.5
20260502123032 72 227 5.0 9.0 0.00 0.00 0.00 61 1016.5
20260502122546 72 284 2.0 7.0 0.00 0.00 0.00 64 1016.6
20260502122044 71 333 3.0 7.0 0.00 0.00 0.00 64 1016.7
20260502121532 71 221 3.0 10.0 0.00 0.00 0.00 64 1016.7
20260502121047 71 193 4.0 10.0 0.00 0.00 0.00 63 1016.7
20260502120557 71 290 2.0 7.0 0.00 0.00 0.00 68 1016.7
20260502115622 69 191 3.0 9.0 0.00 0.00 0.00 67 1016.9
20260502115044 70 221 5.0 9.0 0.00 0.00 0.00 65 1016.9
20260502114536 70 254 4.0 10.0 0.00 0.00 0.00 65 1016.8
20260502114031 70 159 5.0 10.0 0.00 0.00 0.00 65 1016.9
20260502113559 71 224 4.0 10.0 0.00 0.00 0.00 65 1017.1
20260502113044 71 227 3.0 10.0 0.00 0.00 0.00 68 1017.0
20260502112608 70 225 4.0 9.0 0.00 0.00 0.00 69 1017.1
20260502112039 70 203 4.0 9.0 0.00 0.00 0.00 67 1017.1
20260502111626 68 173 5.0 10.0 0.00 0.00 0.00 70 1017.2
20260502111051 68 216 6.0 10.0 0.00 0.00 0.00 71 1017.2
20260502110557 68 195 4.0 8.0 0.00 0.00 0.00 71 1017.2
20260502110119 68 121 2.0 10.0 0.00 0.00 0.00 72 1017.2
20260502105543 68 207 3.0 10.0 0.00 0.00 0.00 71 1017.2
20260502105051 67 267 3.0 9.0 0.00 0.00 0.00 73 1017.3
20260502104539 67 169 4.0 10.0 0.00 0.00 0.00 72 1017.3
20260502104037 67 188 4.0 10.0 0.00 0.00 0.00 72 1017.3
20260502103535 67 180 4.0 9.0 0.00 0.00 0.00 72 1017.3
20260502103034 67 211 4.0 9.0 0.00 0.00 0.00 71 1017.4
20260502102625 67 206 2.0 7.0 0.00 0.00 0.00 72 1017.3
20260502102041 67 217 4.0 7.0 0.00 0.00 0.00 72 1017.3
20260502101058 67 218 4.0 7.0 0.00 0.00 0.00 73 1017.4
20260502100544 67 220 4.0 9.0 0.00 0.00 0.00 72 1017.4
20260502091108 67 171 4.0 7.0 0.00 0.00 0.00 71 1017.6
20260502090534 67 254 3.0 7.0 0.00 0.00 0.00 74 1017.6
20260502071027 58 250 0.0 2.0 0.00 0.00 0.00 81 1017.1
20260502070539 58 250 0.0 2.0 0.00 0.00 0.00 80 1017.1
20260502070100 59 250 0.0 2.0 0.00 0.00 0.00 78 1017.3
20260502065547 59 250 1.0 3.0 0.00 0.00 0.00 73 1017.5
20260502065039 59 234 2.0 3.0 0.00 0.00 0.00 73 1017.7
20260502064554 59 211 0.0 4.0 0.00 0.00 0.00 71 1017.7
20260502064039 59 241 1.0 5.0 0.00 0.00 0.00 69 1017.7
20260502063621 60 221 3.0 6.0 0.00 0.00 0.00 69 1017.7
20260502063047 60 207 2.0 4.0 0.00 0.00 0.00 68 1017.7
20260502062547 59 198 1.0 3.0 0.00 0.00 0.00 68 1017.6
20260502062030 59 225 0.0 2.0 0.00 0.00 0.00 68 1017.6
20260502061038 59 225 1.0 3.0 0.00 0.00 0.00 69 1017.6
20260502060539 58 213 1.0 3.0 0.00 0.00 0.00 69 1017.6
20260502055553 57 178 1.0 3.0 0.00 0.00 0.00 70 1017.6
20260502055045 57 205 0.0 4.0 0.00 0.00 0.00 71 1017.5
20260502054542 57 204 1.0 3.0 0.00 0.00 0.00 71 1017.6
20260502054030 57 235 2.0 3.0 0.00 0.00 0.00 71 1017.6
20260502053616 56 189 1.0 3.0 0.00 0.00 0.00 72 1017.5
20260502053042 56 189 1.0 3.0 0.00 0.00 0.00 72 1017.5
20260502052542 56 188 0.0 1.0 0.00 0.00 0.00 72 1017.4
20260502052050 55 188 0.0 2.0 0.00 0.00 0.00 71 1017.4
20260502051534 54 189 1.0 2.0 0.00 0.00 0.00 71 1017.4
20260502051102 55 180 0.0 2.0 0.00 0.00 0.00 70 1017.3
20260502050543 55 180 1.0 2.0 0.00 0.00 0.00 67 1017.4
20260502050034 55 207 1.0 5.0 0.00 0.00 0.00 67 1017.4
20260502045540 55 209 2.0 5.0 0.00 0.00 0.00 67 1017.5
20260502045059 54 184 3.0 5.0 0.00 0.00 0.00 68 1017.6
20260502044535 53 243 2.0 5.0 0.00 0.00 0.00 71 1017.5
20260502044114 53 196 2.0 4.0 0.00 0.00 0.00 73 1017.4
20260502043534 52 218 2.0 3.0 0.00 0.00 0.00 76 1017.4
20260502043038 52 194 1.0 3.0 0.00 0.00 0.00 77 1017.4
20260502042545 51 194 0.0 1.0 0.00 0.00 0.00 76 1017.3
20260502042052 51 194 0.0 1.0 0.00 0.00 0.00 76 1017.3
20260502041555 51 194 0.0 1.0 0.00 0.00 0.00 75 1017.3
20260502041030 51 194 0.0 1.0 0.00 0.00 0.00 75 1017.3
20260502040553 51 194 0.0 1.0 0.00 0.00 0.00 76 1017.4
20260502040036 51 194 0.0 2.0 0.00 0.00 0.00 75 1017.5
20260502035619 51 194 1.0 2.0 0.00 0.00 0.00 74 1017.4
20260502035055 51 194 1.0 2.0 0.00 0.00 0.00 74 1017.5
20260502034543 51 182 1.0 2.0 0.00 0.00 0.00 74 1017.5
20260502034103 51 182 1.0 2.0 0.00 0.00 0.00 73 1017.5
20260502033559 51 203 1.0 2.0 0.00 0.00 0.00 73 1017.5
20260502033035 51 203 0.0 2.0 0.00 0.00 0.00 72 1017.6
20260502032540 51 203 1.0 3.0 0.00 0.00 0.00 72 1017.6
20260502032047 51 138 1.0 5.0 0.00 0.00 0.00 72 1017.5
20260502031544 51 190 1.0 5.0 0.00 0.00 0.00 74 1017.6
20260502031027 51 165 1.0 2.0 0.00 0.00 0.00 74 1017.5
20260502030617 51 128 0.0 2.0 0.00 0.00 0.00 72 1017.5
20260502030033 51 128 0.0 2.0 0.00 0.00 0.00 72 1017.4
20260502025545 52 128 0.0 2.0 0.00 0.00 0.00 71 1017.5
20260502025029 52 128 0.0 2.0 0.00 0.00 0.00 70 1017.6
20260502024535 52 128 1.0 2.0 0.00 0.00 0.00 70 1017.6
20260502024050 52 157 1.0 2.0 0.00 0.00 0.00 70 1017.8
20260502023607 52 194 1.0 2.0 0.00 0.00 0.00 70 1017.9
20260502023044 52 164 0.0 2.0 0.00 0.00 0.00 70 1017.9
20260502022542 53 149 1.0 2.0 0.00 0.00 0.00 69 1017.8
20260502022036 53 92 1.0 3.0 0.00 0.00 0.00 68 1017.9
20260502021547 53 154 1.0 3.0 0.00 0.00 0.00 67 1017.9
20260502021040 54 165 1.0 4.0 0.00 0.00 0.00 66 1018.0
20260502020550 54 171 2.0 4.0 0.00 0.00 0.00 66 1018.0
20260502020048 54 176 2.0 3.0 0.00 0.00 0.00 66 1018.0
20260502015555 54 161 1.0 3.0 0.00 0.00 0.00 65 1018.1
20260502015030 54 161 2.0 3.0 0.00 0.00 0.00 66 1018.1
20260502014547 54 159 1.0 3.0 0.00 0.00 0.00 65 1018.1
20260502014031 54 150 1.0 3.0 0.00 0.00 0.00 65 1018.1
20260502013534 54 156 1.0 3.0 0.00 0.00 0.00 65 1018.1
20260502013056 54 186 1.0 3.0 0.00 0.00 0.00 66 1018.1
20260502012558 54 155 1.0 3.0 0.00 0.00 0.00 66 1018.1
20260502012039 54 148 1.0 3.0 0.00 0.00 0.00 67 1018.1
20260502011537 53 157 2.0 3.0 0.00 0.00 0.00 71 1018.2
20260502011056 53 144 1.0 2.0 0.00 0.00 0.00 69 1018.2
20260502010545 53 144 0.0 1.0 0.00 0.00 0.00 67 1018.2
20260502010036 53 144 0.0 1.0 0.00 0.00 0.00 67 1018.3
20260502005545 53 144 0.0 2.0 0.00 0.00 0.00 67 1018.3
20260502005038 53 157 1.0 2.0 0.00 0.00 0.00 68 1018.4
20260502004543 53 156 1.0 2.0 0.00 0.00 0.00 69 1018.4
20260502004045 53 156 1.0 2.0 0.00 0.00 0.00 69 1018.5
20260502003604 53 101 0.0 1.0 0.00 0.00 0.00 68 1018.5
20260502003050 54 101 0.0 1.0 0.00 0.00 0.00 66 1018.5
20260502002612 54 101 0.0 1.0 0.00 0.00 0.00 67 1018.6
20260502002029 54 101 0.0 1.0 0.00 0.00 0.00 68 1018.6
20260502001530 53 101 0.0 2.0 0.00 0.00 0.00 68 1018.7
20260502001041 53 101 1.0 2.0 0.00 0.00 0.00 67 1018.7
20260502000606 54 101 0.0 1.0 0.00 0.00 0.00 68 1018.7
20260502000120 54 101 0.0 1.0 0.00 0.00 0.00 67 1018.8
20260501235530 54 101 0.0 1.0 0.00 0.00 0.00 66 1018.8
20260501235125 54 101 0.0 1.0 0.00 0.00 0.00 66 1018.9
20260501234531 54 101 0.0 1.0 0.00 0.00 0.00 66 1018.9
20260501234030 54 101 0.0 1.0 0.00 0.00 0.00 65 1019.0
20260501233534 54 101 0.0 1.0 0.00 0.00 0.00 65 1019.0
20260501233100 54 101 0.0 1.0 0.00 0.00 0.00 65 1019.1
20260501232533 54 101 0.0 1.0 0.00 0.00 0.00 67 1019.1
20260501232058 54 101 0.0 1.0 0.00 0.00 0.00 66 1019.1
20260501231535 54 101 0.0 1.0 0.00 0.00 0.00 68 1019.1
20260501231027 54 101 0.0 1.0 0.00 0.00 0.00 71 1019.2
20260501230540 54 101 0.0 1.0 0.00 0.00 0.00 69 1019.2
20260501230051 54 101 0.0 1.0 0.00 0.00 0.00 70 1019.2
20260501225548 54 101 0.0 1.0 0.00 0.00 0.00 71 1019.2
20260501225056 54 101 0.0 1.0 0.00 0.00 0.00 71 1019.3
20260501224531 54 101 0.0 0.0 0.00 0.00 0.00 72 1019.3
20260501224026 54 101 0.0 0.0 0.00 0.00 0.00 72 1019.3
20260501223544 54 101 0.0 0.0 0.00 0.00 0.00 72 1019.4
20260501223043 54 101 0.0 1.0 0.00 0.00 0.00 73 1019.4
20260501222602 54 101 0.0 1.0 0.00 0.00 0.00 73 1019.4
20260501222059 54 101 0.0 0.0 0.00 0.00 0.00 72 1019.4
20260501221545 54 101 0.0 0.0 0.00 0.00 0.00 71 1019.4
20260501221023 55 101 0.0 0.0 0.00 0.00 0.00 72 1019.4
20260501220538 55 101 0.0 0.0 0.00 0.00 0.00 72 1019.5
20260501220058 55 101 0.0 0.0 0.00 0.00 0.00 72 1019.5
20260501215542 55 101 0.0 0.0 0.00 0.00 0.00 72 1019.5
20260501215043 55 101 0.0 0.0 0.00 0.00 0.00 73 1019.5
20260501214541 55 101 0.0 0.0 0.00 0.00 0.00 73 1019.5
20260501214052 55 101 0.0 0.0 0.00 0.00 0.00 73 1019.5
20260501213541 55 101 0.0 0.0 0.00 0.00 0.00 73 1019.5
20260501213036 56 101 0.0 0.0 0.00 0.00 0.00 74 1019.6
20260501212613 56 101 0.0 0.0 0.00 0.00 0.00 73 1019.6
20260501212058 56 101 0.0 0.0 0.00 0.00 0.00 72 1019.6
20260501211545 56 101 0.0 0.0 0.00 0.00 0.00 71 1019.6
20260501211039 56 101 0.0 0.0 0.00 0.00 0.00 70 1019.5
20260501210547 56 101 0.0 0.0 0.00 0.00 0.00 69 1019.6
20260501210032 57 101 0.0 0.0 0.00 0.00 0.00 69 1019.6
20260501205541 57 101 0.0 0.0 0.00 0.00 0.00 69 1019.7
20260501205037 57 101 0.0 0.0 0.00 0.00 0.00 68 1019.7
20260501204605 57 101 0.0 0.0 0.00 0.00 0.00 68 1019.7
20260501204033 57 101 0.0 0.0 0.00 0.00 0.00 67 1019.7
20260501203600 58 101 0.0 0.0 0.00 0.00 0.00 66 1019.8
20260501203040 58 101 0.0 0.0 0.00 0.00 0.00 66 1019.8
20260501202535 58 101 0.0 0.0 0.00 0.00 0.00 65 1019.8
20260501202033 58 101 0.0 0.0 0.00 0.00 0.00 63 1019.8
20260501201600 59 101 0.0 0.0 0.00 0.00 0.00 63 1019.8
20260501201053 59 101 0.0 1.0 0.00 0.00 0.00 63 1019.8
20260501200608 59 101 0.0 1.0 0.00 0.00 0.00 63 1019.8
20260501200041 59 101 0.0 0.0 0.00 0.00 0.00 61 1019.8
20260501195549 60 101 0.0 0.0 0.00 0.00 0.00 60 1019.7
20260501195056 60 101 0.0 0.0 0.00 0.00 0.00 60 1019.6
20260501194557 61 101 0.0 0.0 0.00 0.00 0.00 59 1019.7
20260501194024 61 101 0.0 0.0 0.00 0.00 0.00 58 1019.7
20260501193542 61 101 0.0 0.0 0.00 0.00 0.00 58 1019.6
20260501193029 62 101 0.0 0.0 0.00 0.00 0.00 58 1019.6
20260501192558 62 101 0.0 0.0 0.00 0.00 0.00 55 1019.6
20260501192029 63 101 0.0 0.0 0.00 0.00 0.00 54 1019.6
20260501191544 63 101 0.0 1.0 0.00 0.00 0.00 52 1019.6
20260501191046 64 101 0.0 1.0 0.00 0.00 0.00 51 1019.6
20260501190537 64 101 0.0 1.0 0.00 0.00 0.00 49 1019.6
20260501190037 65 101 0.0 0.0 0.00 0.00 0.00 49 1019.6
20260501185608 65 101 0.0 0.0 0.00 0.00 0.00 48 1019.6
20260501185032 66 101 0.0 1.0 0.00 0.00 0.00 47 1019.6
20260501184540 67 101 0.0 1.0 0.00 0.00 0.00 46 1019.6
20260501184029 67 101 0.0 2.0 0.00 0.00 0.00 45 1019.6
20260501183543 67 101 0.0 2.0 0.00 0.00 0.00 45 1019.6
20260501183029 68 101 1.0 1.0 0.00 0.00 0.00 44 1019.6